Location: Unspecified
(0.0000°N, 0.0000°E)
Time: 06:37:04
(UTC+00:00)

Hubble Space Telescope - Pass Details

Date: 17 January 2018
Orbit: 537 x 541 km, 28.5° (Epoch: 20 January)

Event Time Altitude Azimuth Distance (km) Brightness Sun altitude
Exits shadow 04:51:54 14° 358° (N) 1,533 2.8 -18.2°
Maximum altitude 04:53:37 18° 28° (NNE) 1,361 2.9 -17.8°
Drops below altitude 10° 04:56:28 10° 72° (ENE) 1,785 4.1 -17.2°
Sets 04:59:18 0° 91° (E) 2,677 5.7 -16.5°
